EHI
0 0 0 0 0 0 0 0 0 0 0 0 0 0 0 0 0 0 0 0 0 0 0 0 0 0 0 0 0 0 0 0 0 0 0 0 0 0 0 0 0 0 0
0 0 0 0 0 0 0 0 0 0 0 0 0 0 0 0 0 0 0 0 0 0 0 0 0 0 0 0 0 0 0 0 0 0 0 0 0 0 0 0 0 0 0
0 0 0 0 0 0 0 0 0 0 0 0 0 0 0 0 0 0 0 0 0 0 0 0 0 0 0 0 0 0 0 0 0 0 0 0 0 0 0 0 0 0 0
0 0 0 0 0 0 0 0 0 0 0 0 0 0 0 0 0 0 0 0 0 0 0 0 0 0 0 0 0 0 0 0 0 0 0 0 0 0 0 0 0 0 0
0 0 0 0 0 0 0 0 0 0 0 0 0 0 0 0 0 0 0 0 0 0 0 0 0 0 0 0 0 0 0 0 0 0 0 0 0 0 0 0 0 0 0
0 0 0 0 0 0 0 0 0 0 0 0 0 0 0 0 0 0 0 0 0 0 0 0 0 0 0 0 0 0 0 0 0 0 0 0 0 0 0 0 0 0 0
0 0 0 0 0 0 0 0 0 0 0 0 0 0 0 0 0 0 0 0 0 0 0 0 0 0 0 0 0 0 0 0 0 0 0 0 0 0 0 0 0 0 0
0 0 0 0 0 0 0 0 0 0 0 0 0 0 0 0 0 0 0 0 0 0 0 0 0 0 0 0 0 0 0 0 0 0 0 0 0 0 0 0 0 0 0
0 0 0 0 0 0 0 0 0 0 0 0 0 0 0 0 0 0 0 0 0 0 0 0 0 0 0 0 0 0 0 0 0 0 0 0 0 0 0 0 0 0 0
0 0 0 0 0 0 0 0 0 0 0 0 0 0 0 0 0 0 0 0 0 0 0 0 0 0 0 0 0 0 0 0 0 0 0 0 0 0 0 0 0 0 0
0 0 0 0 0 0 0 0 0 0 0 0 0 0 0 0 0 0 0 0 0 0 0 0 0 0 0 0 0 0 0 0 0 0 0 0 0 0 0 0 0 0 0
0 0 0 0 0 0 0 0 0 0 0 0 0 0 0 0 0 0 0 0 0 0 0 0 0 0 0 0 0 0 0 0 0 0 0 0 0 0 0 0 0 0 0
0 0 0 0 0 0 0 0 0 0 0 0 0 0 0 0 0 0 0 0 0 0 0 0 0 0 0 0 0 0 0 0 0 0 0 0 0 0 0 0 0 0 0
0 0 0 0 0 0 0 0 0 0 0 0 0 0 0 0 0 0 0 0 0 0 0 0 0 0 0 0 0 0 0 0 0 0 0 0 0 0 0 0 0 0 0
0 0 0 0 0 0 0 0 0 0 0 0 0 0 0 0 0 0 0 0 0 0 0 0 0 0 0 0 0 0 0 0 0 0 0 0 0 0 0 0 0 0 0
0 0 0 0 0 0 0 0 0 0 0 0 0 0 0 0 0 0 0 0 0 0 0 0 0 0 0 0 0 0 0 0 0 0 0 0 0 0 0 0 0 0 0
0 0 0 0 0 0 0 0 0 0 0 0 0 0 0 0 0 0 0 0 0 0 0 0 0 0 0 0 0 0 0 0 0 0 0 0 0 0 0 0 0 0 0
0 0 0 0 0 0 0 0 0 0 0 0 0 0 0 0 0 0 0 0 0 0 0 0 0 0 0 0 0 0 0 0 0 0 0 0 0 0 0 0 0 0 0
0 0 0 0 0 0 0 0 0 0 0 0 0 0 0 0 0 0 0 0 0 0 0 0 0 0 0 0 0 0 0 0 0 0 0 0 0 0 0 0 0 0 0
0 0 0 0 0 0 0 0 0 0 0 0 0 0 0 0 0 0 0 0 0 0 0 0 0 0 0 0 0 0 0 0 0 0 0 0 0 0 0 0 0 0 0
0 0 0 0 0 0 0 0 0 0 0 0 0 0 0 0 0 0 0 0 0 0 0 0 0 0 0 0 0 0 0 0 0 0 0 0 0 0 0 0 0 0 0
0 0 0 0 0 0 0 0 0 0 0 0 0 0 0 0 0 0 0 0 0 0 0 0 0 0 0 0 0 0 0 0 0 0 0 0 0 0 0 0 0 0 0
0 0 0 0 0 0 0 0 0 0 0 0 0 0 0 0 0 0 0 0 0 0 0 0 0 0 0 0 0 0 0 0 0 0 0 0 0 0 0 0 0 0 0
0 0 0 0 0 0 0 0 0 0 0 0 0 0 0 0 0 0 0 0 0 0 0 0 0 0 0 0 0 0 0 0 0 0 0 0 0 0 0 0 0 0 0
0 0 0 0 0 0 0 0 0 0 0 0 0 0 0 0 0 0 0 0 0 0 0 0 0 0 0 0 0 0 0 0 0 0 0 0 0 0 0 0 0 0 0
0 0 0 0 0 0 0 0 0 0 0 0 0 0 0 0 0 0 0 0 0 0 0 0 0 0 0 0 0 0 0 0 0 0 0 0 0 0 0 0 0 0 0
Wind_Speed
4 3 3 3 2 2 2 2 2 2 2 2 2 2 2 3 3 3 3 3 3 3 3 3 3 3 3 3 3 3 3 3 5 4 2 3 4 5 5 4 4 4 4
4 4 3 3 3 3 2 2 2 2 2 2 2 2 2 2 2 2 3 3 3 3 4 4 4 3 3 3 3 3 3 3 3 6 4 3 4 4 5 5 5 5 4
4 4 4 4 4 3 3 2 2 1 1 1 1 1 2 2 2 2 2 3 2 3 3 3 4 4 4 3 4 4 3 4 3 4 4 4 3 4 4 5 5 4 6
5 5 5 5 4 4 3 3 2 2 1 1 1 1 1 1 1 2 3 2 2 2 2 2 2 3 3 4 4 4 4 4 4 4 4 4 4 4 3 4 5 4 5
5 5 5 4 4 3 3 3 2 2 2 1 1 1 0 0 1 2 2 2 2 2 2 2 2 3 4 4 3 3 4 3 3 3 4 4 4 4 4 4 5 6 6
5 6 5 4 4 4 4 4 3 3 2 2 2 1 1 0 1 2 2 2 2 2 2 2 3 2 4 6 7 6 5 4 4 3 3 4 5 5 4 5 5 6 6
5 5 5 5 5 5 4 4 4 3 3 3 2 2 1 1 1 2 3 2 1 1 2 2 3 3 4 3 5 6 6 7 6 4 4 4 5 5 6 6 5 6 7
5 5 5 5 5 4 4 4 4 3 3 3 3 2 2 2 2 2 2 1 1 1 1 1 2 3 4 4 3 3 3 4 5 3 2 3 4 5 5 6 7 7 7
5 5 5 5 5 5 5 5 4 3 3 3 2 3 2 2 3 2 2 1 1 1 1 1 1 2 5 7 4 3 4 4 6 7 7 7 9 11 9 4 5 5 6
5 5 4 5 5 6 5 5 4 3 3 3 2 2 3 2 3 3 3 1 1 1 1 1 2 3 5 7 4 3 4 4 4 5 6 7 6 7 9 5 4 5 6
4 3 4 4 5 5 4 4 3 3 3 3 3 3 3 4 4 4 4 1 1 1 1 1 1 4 6 7 6 3 4 5 4 4 4 4 4 4 4 4 4 4 5
3 3 4 4 4 3 4 4 3 4 4 4 3 3 3 3 4 4 5 4 3 1 1 1 1 4 6 6 5 5 7 6 2 3 3 4 4 4 4 5 5 4 5
3 4 4 3 3 3 4 4 3 4 4 3 3 3 2 2 3 6 6 5 5 2 1 3 4 5 5 4 5 6 5 2 2 3 3 4 4 4 5 5 6 6 6
4 4 3 4 3 3 3 4 4 4 4 4 4 4 3 2 2 2 2 2 4 3 1 3 4 4 4 4 4 3 2 1 2 2 3 4 4 4 4 5 6 6 6
4 4 3 4 4 4 4 4 5 4 5 5 4 4 3 3 4 5 3 2 2 2 1 1 1 1 1 1 1 1 1 2 2 3 3 4 5 5 5 5 5 6 6
4 4 3 3 3 3 3 2 4 5 6 7 6 5 4 5 5 6 6 6 5 5 2 1 2 1 2 2 2 2 2 2 2 3 3 4 5 5 6 6 6 6 7
5 4 3 3 4 4 4 4 3 3 5 6 7 7 7 7 7 7 6 6 6 5 3 2 2 2 2 1 2 2 2 2 2 3 3 4 4 5 6 6 6 6 7
4 5 4 4 4 4 4 4 4 4 3 3 6 9 8 8 7 7 7 5 3 4 2 3 2 2 2 2 2 2 3 3 3 3 3 4 4 5 6 6 6 7 8
4 3 3 3 3 3 3 4 4 4 4 3 2 4 8 7 7 7 6 4 3 3 3 3 2 2 2 2 2 2 3 3 3 3 4 4 4 5 6 6 7 11 9
4 6 5 3 3 3 4 4 4 4 4 4 4 4 4 4 3 4 4 4 4 3 3 3 2 2 2 2 2 3 3 3 4 4 4 4 4 5 6 7 7 7 7
4 5 7 4 4 4 4 4 4 4 4 4 4 5 8 5 5 5 4 4 4 4 3 3 2 2 2 2 2 3 4 4 4 4 4 4 4 5 6 6 7 7 8
4 4 4 4 4 4 4 4 5 5 5 5 3 4 9 5 4 4 4 4 4 3 3 3 3 3 3 3 3 3 4 4 4 4 4 4 5 5 6 6 7 7 8
4 5 4 4 4 7 6 5 5 5 5 5 4 4 4 4 4 4 4 3 3 3 3 3 3 3 2 2 3 3 4 5 5 5 5 5 5 5 6 7 8 8 8
5 5 5 5 5 5 5 5 5 5 5 5 4 4 4 4 4 4 3 3 3 3 3 3 3 4 4 3 3 3 4 5 5 4 6 6 6 6 6 7 7 8 8
5 5 5 5 5 5 5 5 5 5 5 5 5 4 4 4 4 3 3 3 3 3 3 3 3 3 4 5 4 4 7 9 8 5 5 5 6 6 6 7 7 8 8
5 5 5 5 5 5 5 5 5 5 5 5 4 4 4 4 4 3 3 3 3 3 3 3 4 4 4 4 5 7 9 9 10 9 6 4 5 5 6 6 8 7 8
Wind_Direction
204 212 221 214 217 231 231 239 249 270 284 293 302 318 326 329 335 339 334 333 332 334 340 339 338 344 339 334 332 327 317 301 286 297 316 325 333 334 334 332 329 332 329
204 205 215 218 219 222 226 234 241 263 275 275 291 307 315 326 337 340 336 337 338 345 350 352 350 351 347 340 338 333 327 315 297 299 311 325 327 327 326 331 333 333 323
197 200 209 218 221 222 221 226 227 240 268 277 277 287 298 314 332 341 336 333 343 347 351 356 358 2 354 345 341 342 336 334 323 307 310 320 318 328 331 333 330 328 323
197 203 212 216 216 217 216 219 220 221 234 256 261 278 288 315 340 343 335 336 343 347 358 3 9 10 354 344 347 345 341 340 334 324 318 320 322 329 339 333 327 326 320
197 207 217 215 208 205 210 214 215 218 223 225 231 256 293 330 349 357 346 340 342 350 358 0 12 8 353 353 349 347 346 337 328 324 320 323 328 338 337 330 322 320 311
203 211 211 208 203 203 208 209 208 210 210 208 217 227 242 249 336 337 339 325 328 343 343 344 343 354 360 0 355 353 348 335 326 319 317 318 321 324 324 324 322 322 312
210 213 208 204 205 206 204 202 206 209 207 209 215 210 221 206 240 308 319 318 318 325 330 337 342 355 5 357 349 348 348 346 337 317 313 314 317 321 319 314 313 308 295
211 214 208 203 205 202 201 208 209 205 204 206 213 209 213 220 223 258 300 315 299 296 319 341 350 351 351 345 336 339 340 344 337 337 319 312 316 312 302 300 300 301 291
215 215 209 203 203 201 205 212 210 202 204 203 201 198 205 228 227 246 272 291 283 296 310 14 15 352 341 344 344 336 335 335 343 344 335 328 329 332 332 326 323 318 310
223 219 209 203 202 205 207 206 202 196 201 196 207 205 204 216 229 237 250 249 269 283 307 336 339 338 337 341 343 340 331 326 331 335 337 336 337 342 349 353 335 319 313
221 212 206 204 206 205 201 197 189 188 190 195 205 216 213 216 228 230 236 228 240 262 278 290 311 328 332 334 340 337 319 325 332 333 331 332 340 346 346 343 334 316 306
215 210 207 204 205 199 195 194 183 182 193 203 207 223 224 220 212 220 231 237 245 235 253 261 286 313 321 325 329 327 332 341 342 333 332 333 333 329 323 318 310 298 282
218 217 210 203 202 194 190 189 186 188 196 204 203 216 223 205 209 219 228 238 249 243 238 269 289 302 311 315 318 330 341 345 334 332 327 321 317 312 314 314 310 301 292
224 223 209 200 200 194 191 187 191 197 201 203 203 209 210 199 197 200 212 233 243 253 262 276 294 306 313 312 320 333 340 330 331 319 313 311 313 316 320 320 319 320 313
228 224 217 208 198 195 197 200 201 205 197 197 201 194 192 207 210 202 194 204 206 220 239 252 270 292 296 304 309 316 331 341 335 321 318 318 319 321 320 321 317 316 310
226 223 217 211 202 197 197 206 205 201 207 207 203 199 207 211 213 217 223 232 237 241 240 240 256 262 275 289 297 307 316 317 316 313 313 314 316 317 317 317 315 313 310
222 223 218 210 203 200 195 192 203 211 211 215 214 215 218 222 226 228 233 238 239 237 231 230 241 247 260 275 286 292 297 303 306 303 303 305 308 310 311 312 313 311 308
221 221 217 213 206 202 199 196 192 196 207 221 221 222 225 228 228 228 230 230 237 227 216 222 230 238 249 264 274 284 292 296 296 295 295 296 298 302 304 304 306 306 306
221 220 214 209 205 201 196 195 195 199 205 207 202 217 220 224 227 228 221 213 216 223 219 218 221 226 238 252 264 273 279 283 286 287 286 288 293 297 298 299 300 304 307
224 222 215 206 202 198 197 199 201 201 203 205 208 205 195 196 208 216 212 208 213 220 218 216 220 225 234 243 252 263 272 276 280 281 284 287 291 292 294 296 298 300 301
217 219 211 209 206 203 203 204 204 203 207 211 212 205 199 197 207 209 209 209 211 213 213 215 217 225 233 237 246 258 267 274 277 279 281 284 287 289 290 291 294 295 297
211 214 209 207 206 205 207 205 205 206 209 211 209 212 214 207 206 210 211 211 206 202 200 205 216 224 227 228 237 252 263 270 274 276 280 283 285 286 289 291 294 297 299
210 211 211 210 205 213 215 208 206 207 207 206 204 204 205 205 209 210 209 203 197 196 195 199 214 229 231 229 230 238 252 261 266 270 276 279 282 284 288 292 294 298 300
213 212 211 209 205 205 208 209 208 207 205 204 205 206 205 203 204 206 200 194 193 196 199 204 214 227 237 243 243 245 252 262 267 265 264 270 276 282 286 290 293 295 297
214 213 211 210 208 209 208 207 207 206 205 205 205 204 201 199 200 200 197 195 195 203 211 215 219 227 236 245 253 257 265 274 280 277 265 266 271 277 284 287 291 295 297
217 216 214 210 209 208 206 206 206 204 205 205 202 199 197 197 198 197 196 197 199 205 213 220 225 233 243 250 254 264 274 281 286 288 285 273 274 280 286 287 291 295 298